Погода в Монти Карвуэйре

Португалия     37°05′58″N   8°28′28″W
темп.,
°C
ветер,
м/с
пор.,
м/с
влажн.,
%
обл.,
%
осадки,
мм/ч
давл.,
гПа
погр.,
м
24 мая, вт
вт2401:00+17ссз71170100 0.0 1015554
04:00+16ссз812694 0.0 1015635
07:00+15ссз812720 0.0 1016632
10:00+18ссз911574 0.0 10161164
13:00+19сз1112575 0.0 1016610
16:00+19сз121360100 0.0 1015631
19:00+18сз111364100 0.0 1016763
22:00+17ссз111471100 0.0 1018902
25 мая, ср
ср2501:00+16ссз101569100 0.0 1018811
04:00+16ссз9137084 0.0 1018568
07:00+15с697510 0.0 1019433
10:00+18с465999 0.0 1019453
13:00+20зюз445742 0.0 1018212
16:00+21зюз565710 0.0 1017144
19:00+20зсз8106141 0.0 1017186
22:00+19ссз677179 0.0 101895
26 мая, чт
чт2601:00+19с59625 0.0 1018125
04:00+19св56565 0.0 101787
07:00+19в58600 0.0 1018149
10:00+20вюв45680 0.0 1019165
13:00+19юв78610 0.0 1019293
16:00+19зсз12645 0.0 101881
19:00+20з44625 0.0 101843
22:00+19зсз22715 0.0 101912
27 мая, пт
пт2701:00+20вюв226864 0.0 101812
04:00+19всв57725 0.0 1018139
07:00+18св58735 0.0 1017210
10:00+21в610623 0.0 1017197
13:00+20вюв915676 0.0 1018365
16:00+20вюв69720 0.0 1016198
19:00+19вюв45785 0.0 101594
22:00+19в22805 0.0 101619
28 мая, сб
сб2801:00+19св44734 0.0 101538
04:00+19в57707 0.0 1014115
07:00+19в71182100 0.0 1013329
10:00+20вюв9128471 0.0 1014369
13:00+19юв67888 0.0 1014225
16:00+19ююз33823 0.0 101397
19:00+19зюз45844 0.0 1012122
22:00+19з44875 0.0 101389